Location: Ferchesar
(52.6477°N, 12.4298°E)
Time: 08:23:14
(UTC+01:00)

Vanguard 3 - Pass Details

Date: 07 December 2021
Orbit: 508 x 3260 km, 33.3° (Epoch: 25 January)

Event Time Altitude Azimuth Distance (km) Brightness Sun altitude
Exits shadow 01:53:06 25° 145° (SE) 5,016 10.9 -53.2°
Drops below altitude 10° 02:06:16 10° 101° (ESE) 5,929 11.8 -51.7°
Sets 02:11:41 0° 90° (E) 6,672 12.3 -51.1°
